Weather History for LEZG - October, 2012

Change the Weather History Date:

Monday, October 8, 2012

  Actual Average Record
Temperature  
Mean Temperature 73 °F -  
Max Temperature 86 °F 66 °F 87 °F (2004)
Min Temperature 60 °F 48 °F 50 °F (1996)
Cooling Degree Days 8    
Growing Degree Days 23 (Base 50)    
Moisture  
Dew Point 59 °F    
Average Humidity 64    
Maximum Humidity 94    
Minimum Humidity 37    
Precipitation  
Precipitation 0.00 in 0.04 in - ()
Sea Level Pressure  
Sea Level Pressure 30.08 in    
Wind  
Wind Speed 5 mph ()    
Max Wind Speed 16 mph    
Max Gust Speed -    
Visibility 9.6 miles    
Events      
Averages and records for this station are not official NWS values.
T = Trace of Precipitation, MM = Missing Value Source: Averaged Metar Reports

Daily Weather History Graph

Daily Weather History Graph

Search for Another Location

Airport or City:

Trip Planner

Search our weather history database for the weather conditions in past years. The results will help you decide how hot, cold, wet, or windy it might be!

Date:

Astronomy

Oct. 08, 2012 Rise Set
Actual Time 8:08 AM CEST 7:33 PM CEST
Civil Twilight 7:40 AM CEST 8:01 PM CEST
Nautical Twilight 7:08 AM CEST 8:33 PM CEST
Astronomical Twilight 6:36 AM CEST 9:05 PM CEST
Moon 12:29 AM CEST (10/8) 3:18 PM CEST (10/8)
Length of Visible Light 12h 20m
Length of Day
11h 24m
Waning Gibbous, 49% of the Moon is Illuminated
Oct 8
Waning Gibbous
Oct 15
New
Oct 22
First Quarter
Oct 29
Full
Nov 7
Last Quarter

Hourly Weather History & Observations

Time (CEST) Temp. Heat Index Dew Point Humidity Pressure Visibility Wind Dir Wind Speed Gust Speed Precip Events Conditions
12:00 AM 71.6 °F - 59.0 °F 64% 30.15 in - West 10.4 mph - N/A   Clear
12:30 AM 71.6 °F - 59.0 °F 64% 30.15 in - West 13.8 mph - N/A   Clear
1:00 AM 69.8 °F - 59.0 °F 68% 30.15 in - West 9.2 mph - N/A   Clear
1:30 AM 69.8 °F - 59.0 °F 68% 30.15 in - West 9.2 mph - N/A   Clear
2:00 AM 71 °F - 59 °F 57% 30.10 in 9 mi WSW 8.1 mph - -   Scattered Clouds
2:00 AM 69.8 °F - 59.0 °F 68% 30.12 in - WSW 8.1 mph - N/A   Clear
2:30 AM 69.8 °F - 59.0 °F 68% 30.12 in - West 9.2 mph - N/A   Clear
3:00 AM 66.2 °F - 59.0 °F 78% 30.12 in - Variable 2.3 mph - N/A   Clear
3:30 AM 64.4 °F - 59.0 °F 83% 30.12 in - Calm Calm - N/A   Clear
4:00 AM 64.4 °F - 57.2 °F 77% 30.12 in - North 2.3 mph - N/A   Clear
4:30 AM 62.6 °F - 57.2 °F 82% 30.12 in - Calm Calm - N/A   Clear
5:00 AM 62.6 °F - 57.2 °F 82% 30.12 in 6.2 mi West 3.5 mph - N/A   Partly Cloudy
5:30 AM 62.6 °F - 57.2 °F 82% 30.12 in - Calm Calm - N/A   Clear
6:00 AM 62.6 °F - 57.2 °F 82% 30.12 in - Calm Calm - N/A   Clear
6:30 AM 60.8 °F - 57.2 °F 88% 30.12 in - Variable 1.2 mph - N/A   Clear
7:00 AM 60.8 °F - 57.2 °F 88% 30.12 in - Calm Calm - N/A   Clear
7:30 AM 62.6 °F - 57.2 °F 82% 30.12 in - Calm Calm - N/A   Clear
8:00 AM 62 °F - 59 °F 86% 30.11 in 12 mi East 1.2 mph - -   Mostly Cloudy
8:00 AM 60.8 °F - 57.2 °F 88% 30.09 in - East 2.3 mph - N/A   Clear
8:30 AM 60.8 °F - 57.2 °F 88% 30.12 in - Variable 1.2 mph - N/A   Clear
9:00 AM 60.8 °F - 59.0 °F 94% 30.09 in - Calm Calm - N/A   Clear
9:30 AM 62.6 °F - 59.0 °F 88% 30.12 in - Calm Calm - N/A   Clear
10:00 AM 64.4 °F - 59.0 °F 83% 30.12 in - Variable 1.2 mph - N/A   Clear
10:30 AM 68.0 °F - 59.0 °F 73% 30.12 in - Variable 2.3 mph - N/A   Clear
11:00 AM 68.0 °F - 60.8 °F 78% 30.12 in - East 3.5 mph - N/A   Clear
11:30 AM 71.6 °F - 59.0 °F 64% 30.12 in - East 4.6 mph - N/A   Clear
12:00 PM 73.4 °F - 59.0 °F 61% 30.12 in - East 4.6 mph - N/A   Clear
12:30 PM 75.2 °F - 59.0 °F 57% 30.09 in - East 3.5 mph - N/A   Clear
1:00 PM 77.0 °F - 59.0 °F 54% 30.09 in - East 4.6 mph - N/A   Clear
1:30 PM 78.8 °F - 59.0 °F 51% 30.09 in - ENE 4.6 mph - N/A   Clear
2:00 PM 82 °F - 62 °F 40% 30.04 in 9 mi ENE 4.6 mph - -   Mostly Cloudy
2:00 PM 78.8 °F - 59.0 °F 51% 30.06 in - ENE 5.8 mph - N/A   Clear
2:30 PM 80.6 °F 80.8 °F 57.2 °F 45% 30.06 in - ENE 4.6 mph - N/A   Clear
3:00 PM 80.6 °F 81.1 °F 59.0 °F 48% 30.04 in - ENE 4.6 mph - N/A   Clear
3:30 PM 82.4 °F 82.0 °F 57.2 °F 42% 30.04 in - East 4.6 mph - N/A   Clear
4:00 PM 82.4 °F 82.5 °F 59.0 °F 45% 30.01 in - East 3.5 mph - N/A   Clear
4:30 PM 84.2 °F 83.5 °F 57.2 °F 40% 30.01 in - East 4.6 mph - N/A   Clear
5:00 PM 84.2 °F 83.5 °F 57.2 °F 40% 30.01 in - East 4.6 mph - N/A   Clear
5:30 PM 84.2 °F 83.0 °F 55.4 °F 37% 30.01 in - NE 5.8 mph - N/A   Clear
6:00 PM 84.2 °F 83.5 °F 57.2 °F 40% 30.01 in - NE 2.3 mph - N/A   Clear
6:30 PM 86.0 °F 84.9 °F 57.2 °F 37% 30.01 in - North 1.2 mph - N/A   Clear
7:00 PM 84.2 °F 83.5 °F 57.2 °F 40% 30.01 in - Calm Calm - N/A   Clear
7:30 PM 80.6 °F 81.1 °F 59.0 °F 48% 30.01 in - NW 8.1 mph - N/A   Clear
8:00 PM 81 °F - 62 °F 43% 29.96 in 12 mi West 4.6 mph - -   Partly Cloudy
8:00 PM 78.8 °F - 60.8 °F 54% 30.01 in - WNW 5.8 mph - N/A   Clear
8:30 PM 75.2 °F - 59.0 °F 57% 30.01 in - West 5.8 mph - N/A   Clear
9:00 PM 75.2 °F - 59.0 °F 57% 30.01 in - West 8.1 mph - N/A   Clear
9:30 PM 75.2 °F - 59.0 °F 57% 30.04 in - West 8.1 mph - N/A   Clear
10:00 PM 75.2 °F - 59.0 °F 57% 30.04 in - West 8.1 mph - N/A   Clear
10:30 PM 73.4 °F - 59.0 °F 61% 30.04 in - West 6.9 mph - N/A   Clear
11:00 PM 73.4 °F - 60.8 °F 65% 30.04 in - NW 11.5 mph - N/A   Clear
11:30 PM 71.6 °F - 57.2 °F 60% 30.06 in - West 16.1 mph - N/A   Clear